KE2GQQ Weather Reports


Display with metric or nautical units.
time (UTC)temp
F
wind
direction
speed
MPH
gust
MPH
rain 1hr
in
rain 24hr
in
rain mn
in
humidity
%
barometer
mb
20260502152017 55 225 1.0 2.0 0.00 0.01 0.01 73 1011.9
20260502151017 55 4 1.0 2.0 0.00 0.01 0.01 75 1012.0
20260502123018 51 39 0.0 2.0 0.00 0.01 0.01 87 1012.2
20260502122018 51 212 0.0 1.0 0.00 0.01 0.01 89 1012.1
20260502121018 51 79 0.0 2.0 0.00 0.01 0.01 89 1012.0
20260502115016 50 129 0.0 2.0 0.00 0.01 0.01 90 1012.1
20260502114018 50 178 0.0 2.0 0.00 0.01 0.01 91 1012.2
20260502113015 50 177 0.0 1.0 0.01 0.01 0.01 92 1012.2
20260502112015 50 254 0.0 1.0 0.01 0.01 0.01 92 1012.1
20260502111036 50 180 0.0 1.0 0.01 0.01 0.01 92 1012.0
20260502110016 50 157 0.0 1.0 0.01 0.01 0.01 91 1011.7
20260502105016 50 289 0.0 1.0 0.01 0.01 0.01 91 1011.6
20260502104016 50 164 1.0 3.0 0.01 0.01 0.01 89 1011.3
20260502103017 50 150 0.0 2.0 0.00 0.00 0.00 89 1011.7
20260502102016 51 174 0.0 2.0 0.00 0.00 0.00 88 1011.5
20260502101057 51 98 0.0 1.0 0.00 0.00 0.00 85 1011.8
20260502091018 52 185 1.0 2.0 0.00 0.00 0.00 78 1011.4
20260502071017 52 144 0.0 2.0 0.00 0.00 0.00 76 1011.4
20260502070016 52 178 1.0 2.0 0.00 0.00 0.00 76 1011.5
20260502065017 51 206 0.0 2.0 0.00 0.00 0.00 76 1011.7
20260502064017 51 198 0.0 2.0 0.00 0.00 0.00 76 1011.5
20260502063017 51 180 0.0 1.0 0.00 0.00 0.00 77 1011.6
20260502062017 51 153 0.0 1.0 0.00 0.00 0.00 79 1011.8
20260502061017 51 124 0.0 1.0 0.00 0.00 0.00 78 1011.6
20260502060037 51 114 0.0 1.0 0.00 0.00 0.00 79 1011.7
20260502055017 52 159 0.0 1.0 0.00 0.00 0.00 80 1011.8
20260502054038 52 156 1.0 2.0 0.00 0.00 0.00 79 1011.9
20260502053018 52 130 0.0 1.0 0.00 0.00 0.00 80 1011.7
20260502052018 52 78 0.0 1.0 0.00 0.00 0.00 79 1011.7
20260502051018 52 185 0.0 1.0 0.00 0.00 0.00 79 1011.7
20260502050018 52 93 0.0 2.0 0.00 0.00 0.00 79 1011.5
20260502045018 52 148 0.0 2.0 0.00 0.00 0.00 81 1011.8
20260502044015 52 155 0.0 1.0 0.00 0.00 0.00 82 1011.9
20260502043016 51 103 0.0 1.0 0.00 0.00 0.00 82 1011.9
20260502042015 51 228 0.0 1.0 0.00 0.00 0.00 81 1012.1
20260502041015 51 344 0.0 1.0 0.00 0.00 0.00 81 1012.1
20260502040016 51 119 0.0 1.0 0.00 0.00 0.00 81 1011.8
20260502035016 51 173 0.0 2.0 0.00 0.00 0.00 81 1011.8
20260502034036 51 108 0.0 1.0 0.00 0.00 0.00 81 1011.6
20260502033037 51 138 0.0 2.0 0.00 0.00 0.00 82 1011.7
20260502032016 51 35 0.0 2.0 0.00 0.00 0.00 82 1011.9
20260502031037 51 32 0.0 2.0 0.00 0.00 0.00 81 1012.1
20260502030017 51 19 0.0 2.0 0.00 0.00 0.00 81 1012.2
20260502025038 51 136 0.0 1.0 0.00 0.00 0.00 80 1012.2
20260502024017 51 195 0.0 2.0 0.00 0.00 0.00 79 1012.2
20260502023018 51 185 0.0 2.0 0.00 0.00 0.00 78 1012.2
20260502022018 52 189 1.0 2.0 0.00 0.00 0.00 77 1012.1
20260502021018 52 193 1.0 2.0 0.00 0.00 0.00 77 1012.1
20260502020018 52 195 1.0 3.0 0.00 0.00 0.00 76 1012.1
20260502015038 52 199 1.0 3.0 0.00 0.00 0.00 75 1012.1
20260502014035 52 177 1.0 3.0 0.00 0.00 0.00 73 1012.0
20260502013015 53 200 1.0 3.0 0.00 0.00 0.00 72 1011.9
20260502012016 53 176 1.0 2.0 0.00 0.00 0.00 71 1011.8
20260502011056 53 194 2.0 4.0 0.00 0.00 0.00 70 1011.7
20260502010016 53 195 1.0 3.0 0.00 0.00 0.00 69 1011.6
20260502005016 54 191 1.0 4.0 0.00 0.00 0.00 68 1011.7
20260502004017 54 186 1.0 3.0 0.00 0.00 0.00 67 1011.7
20260502003016 54 197 1.0 3.0 0.00 0.00 0.00 68 1011.6
20260502002016 54 194 2.0 5.0 0.00 0.00 0.00 67 1011.5
20260502001037 54 187 1.0 3.0 0.00 0.00 0.00 67 1011.4
20260502000017 54 189 2.0 3.0 0.00 0.00 0.00 67 1011.2
20260501235017 54 193 1.0 3.0 0.00 0.00 0.00 67 1011.2
20260501234017 55 191 1.0 3.0 0.00 0.00 0.00 66 1011.2
20260501233017 55 202 2.0 5.0 0.00 0.00 0.00 65 1011.1
20260501232017 55 189 1.0 4.0 0.00 0.00 0.00 64 1011.0
20260501231017 56 200 2.0 5.0 0.00 0.00 0.00 62 1010.8
20260501230018 56 181 2.0 5.0 0.00 0.00 0.00 61 1010.8
20260501225018 57 206 3.0 7.0 0.00 0.00 0.00 59 1010.8
20260501224018 57 199 2.0 4.0 0.00 0.00 0.00 58 1010.7
20260501223018 58 201 3.0 7.0 0.00 0.00 0.00 58 1010.7
20260501222015 58 205 3.0 5.0 0.00 0.00 0.00 57 1010.8
20260501221015 58 199 3.0 6.0 0.00 0.00 0.00 58 1010.9
20260501220035 59 201 3.0 6.0 0.00 0.00 0.00 57 1010.9
20260501215015 59 200 3.0 6.0 0.00 0.00 0.00 57 1010.9
20260501214016 59 202 3.0 7.0 0.00 0.00 0.00 55 1010.8
20260501213016 60 196 3.0 6.0 0.00 0.00 0.00 54 1010.7
20260501212016 60 204 3.0 7.0 0.00 0.00 0.00 53 1010.5
20260501211016 61 192 3.0 5.0 0.00 0.00 0.00 52 1010.5
20260501210017 61 197 3.0 6.0 0.00 0.00 0.00 51 1010.5
20260501205016 62 197 3.0 8.0 0.00 0.00 0.00 49 1010.5
20260501204017 63 197 4.0 8.0 0.00 0.00 0.00 49 1010.4
20260501203017 64 203 4.0 6.0 0.00 0.00 0.00 47 1010.3
20260501202017 65 204 2.0 7.0 0.00 0.00 0.00 46 1010.3
20260501201017 65 205 2.0 5.0 0.00 0.00 0.00 42 1010.2
20260501200017 65 201 1.0 5.0 0.00 0.00 0.00 43 1010.2
20260501195016 64 232 1.0 4.0 0.00 0.00 0.00 42 1010.3
20260501194016 64 194 2.0 4.0 0.00 0.00 0.00 41 1010.3
20260501193016 64 203 2.0 7.0 0.00 0.00 0.00 42 1010.4
20260501192016 64 203 2.0 5.0 0.00 0.00 0.00 41 1010.6
20260501191016 64 239 1.0 4.0 0.00 0.00 0.00 41 1010.8
20260501190015 64 200 2.0 6.0 0.00 0.00 0.00 41 1010.9
20260501185015 63 203 2.0 6.0 0.00 0.00 0.00 42 1011.1
20260501184017 63 190 3.0 7.0 0.00 0.00 0.00 41 1011.2
20260501183036 62 182 2.0 6.0 0.00 0.00 0.00 41 1011.4
20260501182016 61 193 2.0 6.0 0.00 0.00 0.00 42 1011.4
20260501181016 61 185 3.0 7.0 0.00 0.00 0.00 42 1011.4
20260501180016 61 190 2.0 5.0 0.00 0.00 0.00 42 1011.4
20260501175016 62 193 2.0 7.0 0.00 0.00 0.00 42 1011.5
20260501174016 61 205 1.0 5.0 0.00 0.00 0.00 42 1011.6
20260501173017 60 279 1.0 4.0 0.00 0.00 0.00 44 1011.6
20260501172017 60 251 1.0 5.0 0.00 0.00 0.00 43 1011.7
20260501171017 60 29 1.0 4.0 0.00 0.00 0.00 44 1011.9
20260501170017 60 205 1.0 5.0 0.00 0.00 0.00 43 1011.9
20260501165017 59 204 1.0 4.0 0.00 0.00 0.00 43 1012.1
20260501164017 59 18 1.0 4.0 0.00 0.00 0.00 43 1012.1
20260501163017 60 160 2.0 7.0 0.00 0.00 0.00 43 1012.2
20260501162018 60 349 1.0 4.0 0.00 0.00 0.00 44 1012.2
20260501161038 59 219 1.0 4.0 0.00 0.00 0.00 44 1012.3
20260501160018 59 212 1.0 3.0 0.00 0.00 0.00 45 1012.5
20260501155018 58 230 1.0 4.0 0.00 0.00 0.00 45 1012.8